When you browse on this site, cookies collect data to enhance your experience and personalize the content and advertising you see.
Visit our Privacy Policy to learn more. By continuing to use the site, you agree to this use of cookies and data.
  • In United Kingdom
  • List of Countries
  • For 7 days
  • Water Temperature
  • Weather Map
  • Weather Widgets
  • user-avatar
    Login

    Hourly Weather Armagh

    Today, 9 April, Thursday

    Time Temperature Precipitation Wind Pressure Humidity
    00:00 +8°C° 0 mm 0 mps 763 mmHg 93%
    01:00 +8°C° 0 mm 0 mps 763 mmHg 93%
    02:00 +7°C° 0 mm 0 mps 763 mmHg 94%
    03:00 +8°C° 0 mm 1 mps 763 mmHg 94%
    04:00 +8°C° 0 mm 1 mps 763 mmHg 94%
    05:00 +8°C° 0 mm 1 mps 763 mmHg 94%
    06:00 +8°C° 0 mm 1 mps 763 mmHg 94%
    07:00 +9°C° 0 mm 1 mps 763 mmHg 91%
    08:00 +10°C° 0 mm 2 mps 763 mmHg 87%
    09:00 +12°C° 0 mm 2 mps 763 mmHg 84%
    10:00 +12°C° 0 mm 3 mps 763 mmHg 80%
    11:00 +13°C° 0 mm 3 mps 763 mmHg 76%
    12:00 +14°C° 0 mm 3 mps 764 mmHg 72%
    13:00 +14°C° 0 mm 3 mps 763 mmHg 72%
    14:00 +15°C° 0 mm 4 mps 763 mmHg 73%
    15:00 +15°C° 0 mm 4 mps 762 mmHg 74%
    16:00 +14°C° 0 mm 3 mps 762 mmHg 78%
    17:00 +13°C° 0 mm 3 mps 762 mmHg 81%
    18:00 +13°C° 0 mm 3 mps 762 mmHg 85%
    19:00 +11°C° 0 mm 3 mps 762 mmHg 88%
    20:00 +10°C° 0 mm 2 mps 762 mmHg 92%
    21:00 +9°C° 0 mm 2 mps 762 mmHg 95%
    22:00 +9°C° 0 mm 2 mps 762 mmHg 95%
    23:00 +10°C° 0 mm 1 mps 762 mmHg 95%

    Tomorrow, 10 April, Friday

    Time Temperature Precipitation Wind Pressure Humidity
    00:00 +10°C° 0 mm 1 mps 762 mmHg 95%
    01:00 +10°C° 0 mm 1 mps 762 mmHg 95%
    02:00 +9°C° 0 mm 1 mps 762 mmHg 95%
    03:00 +9°C° 0 mm 1 mps 761 mmHg 95%
    04:00 +9°C° 0 mm 1 mps 761 mmHg 95%
    05:00 +10°C° 0 mm 1 mps 762 mmHg 94%
    06:00 +10°C° 0 mm 1 mps 762 mmHg 94%
    07:00 +11°C° 0 mm 1 mps 762 mmHg 91%
    08:00 +13°C° 0 mm 1 mps 762 mmHg 88%
    09:00 +14°C° 0 mm 2 mps 762 mmHg 85%
    10:00 +15°C° 0 mm 2 mps 762 mmHg 82%
    11:00 +16°C° 0 mm 2 mps 761 mmHg 80%
    12:00 +17°C° 0 mm 2 mps 761 mmHg 77%
    13:00 +17°C° 0.3 mm 2 mps 761 mmHg 79%
    14:00 +17°C° 0.3 mm 2 mps 761 mmHg 81%
    15:00 +17°C° 0.3 mm 3 mps 760 mmHg 83%
    16:00 +17°C° 0.7 mm 2 mps 760 mmHg 86%
    17:00 +16°C° 0.7 mm 2 mps 760 mmHg 89%
    18:00 +15°C° 0.7 mm 2 mps 760 mmHg 92%
    19:00 +14°C° 0.3 mm 2 mps 760 mmHg 93%
    20:00 +14°C° 0.3 mm 2 mps 760 mmHg 94%
    21:00 +13°C° 0.3 mm 2 mps 760 mmHg 95%
    22:00 +12°C° 0 mm 2 mps 760 mmHg 95%
    23:00 +12°C° 0 mm 2 mps 760 mmHg 95%

    Day after tomorrow, 11 April, Saturday

    Time Temperature Precipitation Wind Pressure Humidity
    00:00 +10°C° 0 mm 2 mps 760 mmHg 96%
    01:00 +10°C° 0 mm 2 mps 760 mmHg 95%
    02:00 +9°C° 0 mm 2 mps 760 mmHg 95%
    03:00 +9°C° 0 mm 2 mps 760 mmHg 95%
    04:00 +9°C° 0 mm 2 mps 760 mmHg 96%
    05:00 +9°C° 0 mm 2 mps 760 mmHg 96%
    06:00 +8°C° 0 mm 2 mps 760 mmHg 96%
    07:00 +9°C° 0 mm 2 mps 760 mmHg 95%
    08:00 +10°C° 0 mm 2 mps 761 mmHg 93%
    09:00 +12°C° 0 mm 2 mps 761 mmHg 92%
    10:00 +12°C° 0 mm 3 mps 761 mmHg 86%
    11:00 +13°C° 0 mm 3 mps 761 mmHg 80%
    12:00 +14°C° 0 mm 4 mps 761 mmHg 75%
    13:00 +14°C° 0 mm 3 mps 760 mmHg 71%
    14:00 +16°C° 0 mm 3 mps 760 mmHg 67%
    15:00 +16°C° 0 mm 3 mps 759 mmHg 64%
    16:00 +14°C° 0 mm 3 mps 759 mmHg 70%
    17:00 +13°C° 0 mm 3 mps 759 mmHg 76%
    18:00 +13°C° 0 mm 3 mps 758 mmHg 83%
    19:00 +11°C° 0.1 mm 3 mps 758 mmHg 86%
    20:00 +10°C° 0.1 mm 3 mps 758 mmHg 90%
    21:00 +9°C° 0.1 mm 3 mps 758 mmHg 93%
    22:00 +8°C° 0 mm 3 mps 757 mmHg 92%
    23:00 +7°C° 0 mm 2 mps 757 mmHg 91%

    12 April, Sunday

    Time Temperature Precipitation Wind Pressure Humidity
    00:00 +6°C° 0 mm 2 mps 757 mmHg 91%
    01:00 +6°C° 0 mm 2 mps 756 mmHg 91%
    02:00 +6°C° 0 mm 1 mps 755 mmHg 92%
    03:00 +6°C° 0 mm 1 mps 755 mmHg 93%
    04:00 +6°C° 0 mm 1 mps 754 mmHg 93%
    05:00 +5°C° 0 mm 1 mps 754 mmHg 93%
    06:00 +5°C° 0 mm 1 mps 754 mmHg 92%
    07:00 +5°C° 0.1 mm 2 mps 754 mmHg 90%
    08:00 +6°C° 0.1 mm 2 mps 754 mmHg 87%
    09:00 +7°C° 0.1 mm 3 mps 753 mmHg 85%
    10:00 +7°C° 0.7 mm 4 mps 753 mmHg 83%
    11:00 +7°C° 0.7 mm 4 mps 753 mmHg 81%
    12:00 +8°C° 0.7 mm 5 mps 753 mmHg 79%
    13:00 +8°C° 0.4 mm 6 mps 753 mmHg 80%
    14:00 +8°C° 0.4 mm 6 mps 753 mmHg 82%
    15:00 +7°C° 0.4 mm 6 mps 753 mmHg 83%
    16:00 +6°C° 0.6 mm 7 mps 753 mmHg 87%
    17:00 +5°C° 0.6 mm 7 mps 753 mmHg 91%
    18:00 +5°C° 0.6 mm 7 mps 753 mmHg 95%
    19:00 +5°C° 0.2 mm 7 mps 754 mmHg 94%
    20:00 +5°C° 0.2 mm 7 mps 754 mmHg 93%
    21:00 +5°C° 0.2 mm 8 mps 755 mmHg 92%
    22:00 +5°C° 0 mm 7 mps 756 mmHg 90%
    23:00 +5°C° 0 mm 7 mps 756 mmHg 89%

    13 April, Monday

    Time Temperature Precipitation Wind Pressure Humidity
    00:00 +4°C° 0 mm 6 mps 757 mmHg 88%
    01:00 +4°C° 0 mm 6 mps 757 mmHg 87%
    02:00 +4°C° 0 mm 6 mps 758 mmHg 87%
    03:00 +3°C° 0 mm 6 mps 758 mmHg 86%
    04:00 +4°C° 0 mm 6 mps 759 mmHg 86%
    05:00 +4°C° 0 mm 6 mps 760 mmHg 85%
    06:00 +5°C° 0 mm 6 mps 761 mmHg 85%
    07:00 +5°C° 0 mm 6 mps 761 mmHg 81%
    08:00 +5°C° 0 mm 6 mps 762 mmHg 77%
    09:00 +6°C° 0 mm 7 mps 763 mmHg 73%
    10:00 +8°C° 0 mm 6 mps 763 mmHg 70%
    11:00 +8°C° 0 mm 6 mps 764 mmHg 67%
    12:00 +9°C° 0 mm 6 mps 764 mmHg 64%
    13:00 +9°C° 0 mm 5 mps 764 mmHg 63%
    14:00 +10°C° 0 mm 5 mps 765 mmHg 63%
    15:00 +10°C° 0 mm 5 mps 765 mmHg 63%
    16:00 +10°C° 0 mm 4 mps 765 mmHg 66%
    17:00 +10°C° 0 mm 3 mps 765 mmHg 70%
    18:00 +9°C° 0 mm 3 mps 765 mmHg 73%
    19:00 +8°C° 0 mm 3 mps 765 mmHg 78%
    20:00 +6°C° 0 mm 2 mps 765 mmHg 83%
    21:00 +4°C° 0 mm 2 mps 765 mmHg 88%
    22:00 +4°C° 0 mm 2 mps 765 mmHg 89%
    23:00 +4°C° 0 mm 2 mps 765 mmHg 91%

    14 April, Tuesday

    Time Temperature Precipitation Wind Pressure Humidity
    00:00 +3°C° 0 mm 2 mps 765 mmHg 93%
    01:00 +3°C° 0 mm 2 mps 765 mmHg 93%
    02:00 +3°C° 0 mm 2 mps 765 mmHg 94%
    03:00 +3°C° 0 mm 2 mps 765 mmHg 95%
    04:00 +3°C° 0 mm 2 mps 764 mmHg 95%
    05:00 +3°C° 0 mm 2 mps 764 mmHg 96%
    06:00 +3°C° 0 mm 2 mps 764 mmHg 96%
    07:00 +5°C° 0 mm 2 mps 763 mmHg 91%
    08:00 +7°C° 0 mm 2 mps 763 mmHg 85%
    09:00 +9°C° 0 mm 2 mps 763 mmHg 80%
    10:00 +10°C° 0 mm 2 mps 762 mmHg 76%
    11:00 +13°C° 0 mm 2 mps 762 mmHg 72%
    12:00 +13°C° 0 mm 3 mps 762 mmHg 68%
    13:00 +13°C° 0 mm 3 mps 761 mmHg 67%
    14:00 +13°C° 0 mm 3 mps 761 mmHg 67%
    15:00 +13°C° 0 mm 3 mps 760 mmHg 66%
    16:00 +12°C° 0 mm 3 mps 760 mmHg 71%
    17:00 +12°C° 0 mm 3 mps 759 mmHg 75%
    18:00 +11°C° 0 mm 3 mps 759 mmHg 79%
    19:00 +9°C° 0 mm 2 mps 759 mmHg 83%
    20:00 +7°C° 0 mm 2 mps 759 mmHg 87%
    21:00 +6°C° 0 mm 1 mps 759 mmHg 91%
    22:00 +6°C° 0 mm 1 mps 759 mmHg 90%
    23:00 +6°C° 0 mm 1 mps 758 mmHg 90%
    Show more